| time (UTC) | temp F | wind direction | speed MPH | gust MPH | rain 1hr in | rain 24hr in | rain mn in | humidity % | barometer mb |
| 20260510034303 | 79 | 154 | 8.0 | 11.0 | 0.00 | 0.00 | 0.00 | 26 | 1006.8 |
| 20260510033805 | 79 | 131 | 8.0 | 10.0 | 0.00 | 0.00 | 0.00 | 26 | 1006.8 |
| 20260510033307 | 79 | 127 | 8.0 | 12.0 | 0.00 | 0.00 | 0.00 | 26 | 1006.8 |
| 20260510032806 | 80 | 119 | 9.0 | 13.0 | 0.00 | 0.00 | 0.00 | 26 | 1006.8 |
| 20260510032307 | 80 | 111 | 8.0 | 12.0 | 0.00 | 0.00 | 0.00 | 26 | 1006.8 |
| 20260510031809 | 80 | 130 | 9.0 | 12.0 | 0.00 | 0.00 | 0.00 | 25 | 1006.8 |
| 20260510031308 | 80 | 121 | 8.0 | 10.0 | 0.00 | 0.00 | 0.00 | 26 | 1006.8 |
| 20260510030811 | 80 | 120 | 8.0 | 11.0 | 0.00 | 0.00 | 0.00 | 26 | 1006.8 |
| 20260510030312 | 81 | 108 | 7.0 | 12.0 | 0.00 | 0.00 | 0.00 | 25 | 1006.8 |
| 20260510025312 | 81 | 123 | 8.0 | 12.0 | 0.00 | 0.00 | 0.00 | 25 | 1006.8 |
| 20260510024810 | 81 | 104 | 10.0 | 11.0 | 0.00 | 0.00 | 0.00 | 24 | 1006.8 |
| 20260510024308 | 81 | 113 | 7.0 | 11.0 | 0.00 | 0.00 | 0.00 | 23 | 1006.8 |
| 20260510023810 | 81 | 121 | 6.0 | 12.0 | 0.00 | 0.00 | 0.00 | 21 | 1006.8 |
| 20260510023312 | 82 | 123 | 9.0 | 10.0 | 0.00 | 0.00 | 0.00 | 20 | 1006.8 |
| 20260510022313 | 83 | 133 | 5.0 | 7.0 | 0.00 | 0.00 | 0.00 | 19 | 1005.8 |
| 20260510021814 | 83 | 139 | 6.0 | 6.0 | 0.00 | 0.00 | 0.00 | 19 | 1005.8 |
| 20260510021313 | 83 | 143 | 4.0 | 7.0 | 0.00 | 0.00 | 0.00 | 19 | 1005.8 |
| 20260510020815 | 83 | 127 | 4.0 | 8.0 | 0.00 | 0.00 | 0.00 | 19 | 1005.8 |
| 20260510020317 | 84 | 145 | 5.0 | 7.0 | 0.00 | 0.00 | 0.00 | 19 | 1005.8 |
| 20260510015815 | 84 | 138 | 4.0 | 7.0 | 0.00 | 0.00 | 0.00 | 18 | 1005.8 |
| 20260510015317 | 84 | 142 | 5.0 | 7.0 | 0.00 | 0.00 | 0.00 | 18 | 1005.8 |
| 20260510014819 | 84 | 146 | 4.0 | 8.0 | 0.00 | 0.00 | 0.00 | 18 | 1005.8 |
| 20260510013820 | 85 | 134 | 6.0 | 7.0 | 0.00 | 0.00 | 0.00 | 18 | 1005.8 |
| 20260510013321 | 85 | 136 | 5.0 | 7.0 | 0.00 | 0.00 | 0.00 | 18 | 1005.8 |
| 20260510012322 | 85 | 128 | 6.0 | 8.0 | 0.00 | 0.00 | 0.00 | 16 | 1005.8 |
| 20260510011824 | 86 | 132 | 5.0 | 8.0 | 0.00 | 0.00 | 0.00 | 16 | 1005.8 |
| 20260510011322 | 86 | 128 | 6.0 | 6.0 | 0.00 | 0.00 | 0.00 | 16 | 1005.8 |
| 20260510010824 | 86 | 129 | 4.0 | 7.0 | 0.00 | 0.00 | 0.00 | 16 | 1005.8 |
| 20260510010326 | 87 | 145 | 4.0 | 6.0 | 0.00 | 0.00 | 0.00 | 16 | 1005.8 |
| 20260510005327 | 87 | 180 | 4.0 | 7.0 | 0.00 | 0.00 | 0.00 | 15 | 1005.8 |
| 20260510004829 | 87 | 213 | 5.0 | 6.0 | 0.00 | 0.00 | 0.00 | 15 | 1005.8 |
| 20260510004327 | 88 | 216 | 4.0 | 7.0 | 0.00 | 0.00 | 0.00 | 15 | 1005.8 |
| 20260510003824 | 88 | 156 | 4.0 | 7.0 | 0.00 | 0.00 | 0.00 | 15 | 1005.8 |
| 20260510002825 | 88 | 131 | 5.0 | 7.0 | 0.00 | 0.00 | 0.00 | 15 | 1005.8 |
| 20260510002327 | 88 | 122 | 5.0 | 8.0 | 0.00 | 0.00 | 0.00 | 15 | 1005.8 |
| 20260510001327 | 88 | 110 | 7.0 | 8.0 | 0.00 | 0.00 | 0.00 | 15 | 1005.8 |
| 20260509235825 | 88 | 117 | 6.0 | 10.0 | 0.00 | 0.00 | 0.00 | 15 | 1005.8 |
| 20260509234328 | 88 | 125 | 7.0 | 8.0 | 0.00 | 0.00 | 0.00 | 15 | 1005.8 |
| 20260509233829 | 89 | 130 | 6.0 | 9.0 | 0.00 | 0.00 | 0.00 | 15 | 1005.8 |
| 20260509232829 | 89 | 114 | 6.0 | 8.0 | 0.00 | 0.00 | 0.00 | 15 | 1005.8 |
| 20260509232331 | 88 | 114 | 6.0 | 8.0 | 0.00 | 0.00 | 0.00 | 15 | 1005.8 |
| 20260509231327 | 89 | 147 | 4.0 | 8.0 | 0.00 | 0.00 | 0.00 | 15 | 1005.8 |
| 20260509230829 | 90 | 163 | 4.0 | 7.0 | 0.00 | 0.00 | 0.00 | 15 | 1005.8 |
| 20260509230312 | 90 | 123 | 4.0 | 6.0 | 0.00 | 0.00 | 0.00 | 15 | 1005.8 |
| 20260509225810 | 90 | 113 | 5.0 | 8.0 | 0.00 | 0.00 | 0.00 | 15 | 1005.8 |
| 20260509225311 | 89 | 118 | 6.0 | 8.0 | 0.00 | 0.00 | 0.00 | 15 | 1005.8 |
| 20260509224307 | 90 | 113 | 4.0 | 7.0 | 0.00 | 0.00 | 0.00 | 15 | 1005.8 |
| 20260509223808 | 90 | 336 | 3.0 | 4.0 | 0.00 | 0.00 | 0.00 | 15 | 1005.8 |
| 20260509223311 | 90 | 211 | 0.0 | 5.0 | 0.00 | 0.00 | 0.00 | 15 | 1005.8 |
| 20260509222809 | 89 | 207 | 3.0 | 5.0 | 0.00 | 0.00 | 0.00 | 15 | 1005.8 |
| 20260509222311 | 91 | 205 | 4.0 | 7.0 | 0.00 | 0.00 | 0.00 | 12 | 1005.8 |
| 20260509221813 | 91 | 135 | 3.0 | 5.0 | 0.00 | 0.00 | 0.00 | 14 | 1005.8 |
| 20260509220813 | 90 | 192 | 0.0 | 7.0 | 0.00 | 0.00 | 0.00 | 14 | 1005.8 |
| 20260509215814 | 90 | 130 | 4.0 | 7.0 | 0.00 | 0.00 | 0.00 | 15 | 1005.8 |
| 20260509215311 | 90 | 109 | 0.0 | 5.0 | 0.00 | 0.00 | 0.00 | 15 | 1005.8 |
| 20260509214813 | 88 | 34 | 4.0 | 7.0 | 0.00 | 0.00 | 0.00 | 12 | 1005.8 |
| 20260509214311 | 88 | 21 | 4.0 | 7.0 | 0.00 | 0.00 | 0.00 | 13 | 1005.8 |
| 20260509213808 | 88 | 16 | 4.0 | 6.0 | 0.00 | 0.00 | 0.00 | 15 | 1005.8 |
| 20260509213311 | 89 | 49 | 4.0 | 6.0 | 0.00 | 0.00 | 0.00 | 15 | 1005.8 |
| 20260509212809 | 89 | 34 | 4.0 | 6.0 | 0.00 | 0.00 | 0.00 | 15 | 1005.8 |
| 20260509211758 | 88 | 5 | 6.0 | 4.0 | 0.00 | 0.00 | 0.00 | 15 | 1005.8 |
| 20260509211257 | 89 | 291 | 0.0 | 5.0 | 0.00 | 0.00 | 0.00 | 15 | 1005.8 |
| 20260509210744 | 88 | 4 | 3.0 | 7.0 | 0.00 | 0.00 | 0.00 | 13 | 1006.8 |
| 20260509210246 | 88 | 351 | 3.0 | 7.0 | 0.00 | 0.00 | 0.00 | 13 | 1006.8 |
| 20260509205745 | 88 | 15 | 5.0 | 7.0 | 0.00 | 0.00 | 0.00 | 13 | 1006.8 |
| 20260509204749 | 91 | 307 | 3.0 | 4.0 | 0.00 | 0.00 | 0.00 | 12 | 1006.8 |
| 20260509204247 | 90 | 307 | 0.0 | 5.0 | 0.00 | 0.00 | 0.00 | 12 | 1006.8 |
| 20260509203749 | 90 | 308 | 0.0 | 5.0 | 0.00 | 0.00 | 0.00 | 12 | 1006.8 |
| 20260509203251 | 89 | 312 | 3.0 | 4.0 | 0.00 | 0.00 | 0.00 | 12 | 1006.8 |
| 20260509202750 | 88 | 303 | 4.0 | 7.0 | 0.00 | 0.00 | 0.00 | 13 | 1006.8 |
| 20260509201248 | 88 | 0 | 4.0 | 5.0 | 0.00 | 0.00 | 0.00 | 13 | 1006.8 |
| 20260509200749 | 88 | 8 | 4.0 | 6.0 | 0.00 | 0.00 | 0.00 | 15 | 1006.8 |
| 20260509200252 | 88 | 69 | 4.0 | 9.0 | 0.00 | 0.00 | 0.00 | 15 | 1006.8 |
| 20260509195750 | 87 | 134 | 7.0 | 7.0 | 0.00 | 0.00 | 0.00 | 15 | 1006.8 |
| 20260509194252 | 87 | 309 | 0.0 | 4.0 | 0.00 | 0.00 | 0.00 | 15 | 1007.8 |
| 20260509192755 | 87 | 17 | 6.0 | 7.0 | 0.00 | 0.00 | 0.00 | 18 | 1007.8 |
| 20260509191759 | 88 | 138 | 4.0 | 5.0 | 0.00 | 0.00 | 0.00 | 18 | 1007.8 |
| 20260509191257 | 87 | 6 | 4.0 | 7.0 | 0.00 | 0.00 | 0.00 | 18 | 1007.8 |
| 20260509190256 | 86 | 33 | 4.0 | 6.0 | 0.00 | 0.00 | 0.00 | 19 | 1007.8 |
| 20260509185750 | 87 | 40 | 4.0 | 7.0 | 0.00 | 0.00 | 0.00 | 18 | 1007.8 |
| 20260509185252 | 86 | 262 | 5.0 | 7.0 | 0.00 | 0.00 | 0.00 | 19 | 1007.8 |
| 20260509184753 | 86 | 119 | 3.0 | 7.0 | 0.00 | 0.00 | 0.00 | 19 | 1007.8 |
| 20260509184253 | 86 | 55 | 4.0 | 9.0 | 0.00 | 0.00 | 0.00 | 19 | 1007.8 |
| 20260509183256 | 86 | 316 | 4.0 | 9.0 | 0.00 | 0.00 | 0.00 | 19 | 1007.8 |
| 20260509182751 | 86 | 169 | 3.0 | 10.0 | 0.00 | 0.00 | 0.00 | 19 | 1007.8 |
| 20260509182252 | 85 | 286 | 4.0 | 7.0 | 0.00 | 0.00 | 0.00 | 19 | 1007.8 |
| 20260509181753 | 84 | 26 | 4.0 | 6.0 | 0.00 | 0.00 | 0.00 | 20 | 1007.8 |
| 20260509180256 | 82 | 17 | 5.0 | 9.0 | 0.00 | 0.00 | 0.00 | 21 | 1007.8 |
| 20260509175745 | 83 | 17 | 4.0 | 7.0 | 0.00 | 0.00 | 0.00 | 20 | 1007.8 |
| 20260509174749 | 85 | 13 | 0.0 | 4.0 | 0.00 | 0.00 | 0.00 | 20 | 1007.8 |
| 20260509174247 | 83 | 8 | 0.0 | 7.0 | 0.00 | 0.00 | 0.00 | 21 | 1007.8 |
| 20260509173251 | 82 | 22 | 6.0 | 7.0 | 0.00 | 0.00 | 0.00 | 21 | 1008.8 |
| 20260509172740 | 83 | 328 | 4.0 | 8.0 | 0.00 | 0.00 | 0.00 | 22 | 1008.8 |
| 20260509171739 | 82 | 15 | 4.0 | 7.0 | 0.00 | 0.00 | 0.00 | 22 | 1008.8 |
| 20260509170241 | 81 | 321 | 5.0 | 7.0 | 0.00 | 0.00 | 0.00 | 21 | 1008.8 |
| 20260509165242 | 81 | 332 | 3.0 | 8.0 | 0.00 | 0.00 | 0.00 | 25 | 1008.8 |
| 20260509164744 | 81 | 330 | 4.0 | 7.0 | 0.00 | 0.00 | 0.00 | 25 | 1008.8 |
| 20260509164228 | 80 | 1 | 5.0 | 7.0 | 0.00 | 0.00 | 0.00 | 28 | 1008.8 |
| 20260509163222 | 79 | 286 | 4.0 | 6.0 | 0.00 | 0.00 | 0.00 | 30 | 1008.8 |
| 20260509162720 | 80 | 296 | 4.0 | 6.0 | 0.00 | 0.00 | 0.00 | 28 | 1008.8 |
| 20260509161720 | 80 | 332 | 3.0 | 7.0 | 0.00 | 0.00 | 0.00 | 28 | 1008.8 |
| 20260509160714 | 79 | 325 | 0.0 | 6.0 | 0.00 | 0.00 | 0.00 | 30 | 1008.8 |
| 20260509160216 | 78 | 273 | 4.0 | 6.0 | 0.00 | 0.00 | 0.00 | 29 | 1008.8 |
| 20260509154718 | 78 | 340 | 4.0 | 9.0 | 0.00 | 0.00 | 0.00 | 30 | 1008.8 |
| 20260509153719 | 77 | 27 | 5.0 | 7.0 | 0.00 | 0.00 | 0.00 | 31 | 1008.8 |
| 20260509153220 | 76 | 13 | 5.0 | 9.0 | 0.00 | 0.00 | 0.00 | 33 | 1008.8 |
| 20260509152221 | 75 | 36 | 7.0 | 10.0 | 0.00 | 0.00 | 0.00 | 35 | 1008.8 |
| 20260509151718 | 76 | 342 | 6.0 | 10.0 | 0.00 | 0.00 | 0.00 | 36 | 1008.8 |
| 20260509150718 | 75 | 351 | 5.0 | 9.0 | 0.00 | 0.00 | 0.00 | 34 | 1008.8 |
| 20260509145719 | 75 | 27 | 7.0 | 8.0 | 0.00 | 0.00 | 0.00 | 35 | 1008.8 |
| 20260509145221 | 75 | 282 | 3.0 | 7.0 | 0.00 | 0.00 | 0.00 | 36 | 1008.8 |
| 20260509144722 | 74 | 9 | 4.0 | 10.0 | 0.00 | 0.00 | 0.00 | 35 | 1008.8 |
| 20260509143723 | 74 | 294 | 5.0 | 9.0 | 0.00 | 0.00 | 0.00 | 39 | 1008.8 |
| 20260509143225 | 74 | 356 | 6.0 | 8.0 | 0.00 | 0.00 | 0.00 | 41 | 1008.8 |
| 20260509142723 | 74 | 309 | 4.0 | 7.0 | 0.00 | 0.00 | 0.00 | 42 | 1008.8 |
| 20260509142225 | 74 | 320 | 4.0 | 6.0 | 0.00 | 0.00 | 0.00 | 45 | 1008.8 |
| 20260509141727 | 73 | 293 | 3.0 | 7.0 | 0.00 | 0.00 | 0.00 | 47 | 1008.8 |
| 20260509140718 | 73 | 291 | 4.0 | 6.0 | 0.00 | 0.00 | 0.00 | 48 | 1008.8 |
| 20260509135718 | 73 | 12 | 4.0 | 6.0 | 0.00 | 0.00 | 0.00 | 49 | 1008.8 |
| 20260509135219 | 72 | 250 | 4.0 | 7.0 | 0.00 | 0.00 | 0.00 | 51 | 1008.8 |
| 20260509134210 | 72 | 351 | 4.0 | 9.0 | 0.00 | 0.00 | 0.00 | 51 | 1008.8 |
| 20260509133712 | 71 | 295 | 4.0 | 7.0 | 0.00 | 0.00 | 0.00 | 50 | 1008.8 |
| 20260509133214 | 72 | 292 | 3.0 | 6.0 | 0.00 | 0.00 | 0.00 | 51 | 1008.8 |
| 20260509132713 | 71 | 330 | 3.0 | 5.0 | 0.00 | 0.00 | 0.00 | 51 | 1008.8 |
| 20260509132215 | 71 | 308 | 3.0 | 7.0 | 0.00 | 0.00 | 0.00 | 52 | 1008.8 |
| 20260509131717 | 70 | 337 | 5.0 | 9.0 | 0.00 | 0.00 | 0.00 | 53 | 1008.8 |
| 20260509131215 | 70 | 69 | 6.0 | 7.0 | 0.00 | 0.00 | 0.00 | 53 | 1008.8 |
| 20260509130712 | 70 | 279 | 4.0 | 8.0 | 0.00 | 0.00 | 0.00 | 53 | 1008.8 |
| 20260509130214 | 70 | 305 | 3.0 | 8.0 | 0.00 | 0.00 | 0.00 | 53 | 1008.8 |
| 20260509125713 | 70 | 314 | 3.0 | 10.0 | 0.00 | 0.00 | 0.00 | 53 | 1008.8 |
| 20260509124702 | 70 | 293 | 5.0 | 7.0 | 0.00 | 0.00 | 0.00 | 51 | 1008.8 |
| 20260509124201 | 70 | 351 | 4.0 | 8.0 | 0.00 | 0.00 | 0.00 | 51 | 1008.8 |
| 20260509123703 | 70 | 289 | 5.0 | 6.0 | 0.00 | 0.00 | 0.00 | 51 | 1008.8 |
| 20260509123205 | 70 | 314 | 3.0 | 4.0 | 0.00 | 0.00 | 0.00 | 51 | 1008.8 |
| 20260509122703 | 70 | 246 | 0.0 | 6.0 | 0.00 | 0.00 | 0.00 | 53 | 1008.8 |
| 20260509121206 | 69 | 320 | 4.0 | 4.0 | 0.00 | 0.00 | 0.00 | 54 | 1007.8 |
| 20260509120708 | 69 | 351 | 0.0 | 4.0 | 0.00 | 0.00 | 0.00 | 54 | 1007.8 |
| 20260509120209 | 69 | 347 | 0.0 | 7.0 | 0.00 | 0.00 | 0.00 | 53 | 1007.8 |
| 20260509115708 | 69 | 356 | 3.0 | 7.0 | 0.00 | 0.00 | 0.00 | 53 | 1007.8 |
| 20260509114712 | 69 | 337 | 4.0 | 7.0 | 0.00 | 0.00 | 0.00 | 52 | 1007.8 |
| 20260509114210 | 69 | 329 | 3.0 | 5.0 | 0.00 | 0.00 | 0.00 | 53 | 1007.8 |
| 20260509113713 | 69 | 306 | 3.0 | 4.0 | 0.00 | 0.00 | 0.00 | 53 | 1007.8 |
| 20260509113214 | 69 | 305 | 0.0 | 0.0 | 0.00 | 0.00 | 0.00 | 52 | 1007.8 |
| 20260509112713 | 69 | 306 | 0.0 | 0.0 | 0.00 | 0.00 | 0.00 | 51 | 1007.8 |
| 20260509112215 | 69 | 306 | 0.0 | 4.0 | 0.00 | 0.00 | 0.00 | 50 | 1007.8 |
| 20260509111717 | 69 | 306 | 0.0 | 5.0 | 0.00 | 0.00 | 0.00 | 50 | 1007.8 |
| 20260509111215 | 69 | 305 | 3.0 | 6.0 | 0.00 | 0.00 | 0.00 | 50 | 1007.8 |
| 20260509110717 | 69 | 304 | 3.0 | 7.0 | 0.00 | 0.00 | 0.00 | 49 | 1007.8 |
| 20260509110219 | 69 | 330 | 4.0 | 7.0 | 0.00 | 0.00 | 0.00 | 50 | 1007.8 |
| 20260509105718 | 69 | 268 | 3.0 | 6.0 | 0.00 | 0.00 | 0.00 | 51 | 1007.8 |
| 20260509104721 | 70 | 301 | 5.0 | 8.0 | 0.00 | 0.00 | 0.00 | 53 | 1007.8 |
| 20260509103722 | 70 | 286 | 4.0 | 4.0 | 0.00 | 0.00 | 0.00 | 55 | 1006.8 |
| 20260509103219 | 71 | 302 | 3.0 | 5.0 | 0.00 | 0.00 | 0.00 | 56 | 1006.8 |
| 20260509102718 | 71 | 303 | 3.0 | 4.0 | 0.00 | 0.00 | 0.00 | 60 | 1006.8 |
| 20260509102219 | 71 | 305 | 3.0 | 4.0 | 0.00 | 0.00 | 0.00 | 60 | 1007.8 |
| 20260509101721 | 71 | 307 | 3.0 | 6.0 | 0.00 | 0.00 | 0.00 | 60 | 1007.8 |
| 20260509100717 | 71 | 298 | 3.0 | 7.0 | 0.00 | 0.00 | 0.00 | 61 | 1006.8 |
| 20260509095718 | 71 | 329 | 6.0 | 9.0 | 0.00 | 0.00 | 0.00 | 64 | 1006.8 |
| 20260509095220 | 72 | 9 | 7.0 | 11.0 | 0.00 | 0.00 | 0.00 | 66 | 1006.8 |
| 20260509094722 | 72 | 3 | 7.0 | 13.0 | 0.00 | 0.00 | 0.00 | 68 | 1006.8 |
| 20260509094221 | 72 | 49 | 10.0 | 11.0 | 0.00 | 0.00 | 0.00 | 67 | 1006.8 |
| 20260509093722 | 73 | 283 | 7.0 | 13.0 | 0.00 | 0.00 | 0.00 | 67 | 1003.8 |
| 20260509093224 | 73 | 216 | 8.0 | 8.0 | 0.00 | 0.00 | 0.00 | 67 | 1003.8 |
| 20260509092723 | 73 | 127 | 5.0 | 9.0 | 0.00 | 0.00 | 0.00 | 67 | 1003.8 |
| 20260509092224 | 73 | 155 | 4.0 | 13.0 | 0.00 | 0.00 | 0.00 | 66 | 1004.8 |
| 20260509091726 | 73 | 166 | 7.0 | 11.0 | 0.00 | 0.00 | 0.00 | 66 | 1004.8 |
| 20260509090722 | 73 | 228 | 6.0 | 10.0 | 0.00 | 0.00 | 0.00 | 66 | 1004.8 |
| 20260509085723 | 72 | 203 | 7.0 | 13.0 | 0.00 | 0.00 | 0.00 | 66 | 1004.8 |
| 20260509085225 | 72 | 176 | 8.0 | 14.0 | 0.00 | 0.00 | 0.00 | 67 | 1004.8 |
| 20260509084727 | 72 | 186 | 7.0 | 11.0 | 0.00 | 0.00 | 0.00 | 66 | 1004.8 |
| 20260509083727 | 72 | 223 | 7.0 | 11.0 | 0.00 | 0.00 | 0.00 | 69 | 1005.8 |
| 20260509083229 | 72 | 154 | 7.0 | 10.0 | 0.00 | 0.00 | 0.00 | 70 | 1005.8 |
| 20260509082728 | 72 | 182 | 7.0 | 12.0 | 0.00 | 0.00 | 0.00 | 69 | 1005.8 |
| 20260509082229 | 72 | 195 | 9.0 | 11.0 | 0.00 | 0.00 | 0.00 | 69 | 1005.8 |
| 20260509081731 | 72 | 213 | 7.0 | 10.0 | 0.00 | 0.00 | 0.00 | 70 | 1005.8 |
| 20260509081230 | 72 | 213 | 6.0 | 9.0 | 0.00 | 0.00 | 0.00 | 71 | 1005.8 |
| 20260509080732 | 72 | 187 | 6.0 | 9.0 | 0.00 | 0.00 | 0.00 | 71 | 1006.8 |
| 20260509080234 | 72 | 227 | 5.0 | 10.0 | 0.00 | 0.00 | 0.00 | 70 | 1006.8 |
| 20260509075732 | 72 | 125 | 6.0 | 8.0 | 0.00 | 0.00 | 0.00 | 69 | 1006.8 |
| 20260509075234 | 72 | 144 | 5.0 | 8.0 | 0.00 | 0.00 | 0.00 | 69 | 1007.8 |
| 20260509074224 | 72 | 154 | 5.0 | 6.0 | 0.00 | 0.00 | 0.00 | 70 | 1007.8 |
| 20260509073726 | 72 | 145 | 4.0 | 8.0 | 0.00 | 0.00 | 0.00 | 70 | 1008.8 |
| 20260509073228 | 72 | 193 | 5.0 | 9.0 | 0.00 | 0.00 | 0.00 | 70 | 1008.8 |
| 20260509072727 | 72 | 223 | 7.0 | 9.0 | 0.00 | 0.00 | 0.00 | 70 | 1008.8 |
| 20260509072228 | 72 | 207 | 6.0 | 9.0 | 0.00 | 0.00 | 0.00 | 71 | 1008.8 |
| 20260509071730 | 72 | 223 | 6.0 | 8.0 | 0.00 | 0.00 | 0.00 | 73 | 1008.8 |
| 20260509071229 | 73 | 253 | 4.0 | 7.0 | 0.00 | 0.00 | 0.00 | 75 | 1008.8 |
| 20260509070731 | 73 | 249 | 4.0 | 12.0 | 0.00 | 0.00 | 0.00 | 76 | 1009.8 |
| 20260509070228 | 73 | 258 | 10.0 | 10.0 | 0.00 | 0.00 | 0.00 | 76 | 1009.8 |
| 20260509065727 | 73 | 302 | 7.0 | 8.0 | 0.00 | 0.00 | 0.00 | 76 | 1009.8 |
| 20260509064731 | 73 | 300 | 6.0 | 7.0 | 0.00 | 0.00 | 0.00 | 76 | 1009.8 |
| 20260509064229 | 73 | 272 | 5.0 | 6.0 | 0.00 | 0.00 | 0.00 | 76 | 1009.8 |
| 20260509063233 | 73 | 286 | 4.0 | 6.0 | 0.00 | 0.00 | 0.00 | 77 | 1009.8 |
| 20260509061735 | 73 | 344 | 3.0 | 4.0 | 0.00 | 0.00 | 0.00 | 77 | 1008.8 |
| 20260509060737 | 73 | 7 | 3.0 | 4.0 | 0.00 | 0.00 | 0.00 | 77 | 1008.8 |
| 20260509060238 | 73 | 7 | 0.0 | 4.0 | 0.00 | 0.00 | 0.00 | 77 | 1008.8 |
| 20260509055736 | 73 | 7 | 3.0 | 7.0 | 0.00 | 0.00 | 0.00 | 77 | 1008.8 |
| 20260509054740 | 72 | 18 | 6.0 | 8.0 | 0.00 | 0.00 | 0.00 | 76 | 1008.8 |
| 20260509053243 | 72 | 338 | 4.0 | 4.0 | 0.00 | 0.00 | 0.00 | 74 | 1008.8 |
| 20260509052742 | 72 | 139 | 3.0 | 0.0 | 0.00 | 0.00 | 0.00 | 74 | 1008.8 |
| 20260509052244 | 72 | 147 | 0.0 | 3.0 | 0.00 | 0.00 | 0.00 | 74 | 1007.8 |
| 20260509051244 | 72 | 147 | 3.0 | 5.0 | 0.00 | 0.00 | 0.00 | 73 | 1007.8 |
| 20260509050746 | 72 | 170 | 0.0 | 4.0 | 0.00 | 0.00 | 0.00 | 72 | 1007.8 |
| 20260509050247 | 72 | 185 | 3.0 | 5.0 | 0.00 | 0.00 | 0.00 | 72 | 1007.8 |
| 20260509044750 | 72 | 113 | 4.0 | 5.0 | 0.00 | 0.00 | 0.00 | 70 | 1007.8 |
| 20260509043751 | 72 | 127 | 4.0 | 6.0 | 0.00 | 0.00 | 0.00 | 70 | 1007.8 |
| 20260509043252 | 73 | 129 | 5.0 | 6.0 | 0.00 | 0.00 | 0.00 | 69 | 1007.8 |
| 20260509042253 | 73 | 128 | 4.0 | 6.0 | 0.00 | 0.00 | 0.00 | 69 | 1008.8 |
| 20260509041755 | 73 | 124 | 4.0 | 5.0 | 0.00 | 0.00 | 0.00 | 68 | 1008.8 |
| 20260509040755 | 73 | 125 | 0.0 | 6.0 | 0.00 | 0.00 | 0.00 | 67 | 1007.8 |
| 20260509040257 | 73 | 124 | 5.0 | 5.0 | 0.00 | 0.00 | 0.00 | 67 | 1007.8 |
| 20260509035756 | 73 | 125 | 4.0 | 7.0 | 0.00 | 0.00 | 0.00 | 66 | 1007.8 |
| 20260509035257 | 73 | 127 | 4.0 | 7.0 | 0.00 | 0.00 | 0.00 | 66 | 1007.8 |
| 20260509034759 | 73 | 137 | 5.0 | 8.0 | 0.00 | 0.00 | 0.00 | 66 | 1007.8 |